VY2CRA-4 Weather Reports


Display with metric or nautical units.
time (UTC)temp
F
wind
direction
speed
MPH
gust
MPH
rain 1hr
in
rain 24hr
in
rain mn
in
humidity
%
barometer
mb
20260507184934 63 270 0.0 0.0 0.00 0.00 0.00 54 996.7
20260507180931 63 270 0.0 0.0 0.00 0.00 0.00 53 996.7
20260507172932 64 270 0.0 0.0 0.00 0.00 0.00 51 996.9
20260507164929 65 270 0.0 0.0 0.00 0.00 0.00 49 998.3
20260507162929 65 270 0.0 0.0 0.00 0.00 0.00 48 998.2
20260507160927 66 270 0.0 0.0 0.00 0.00 0.00 47 998.7
20260507154926 66 270 0.0 0.0 0.00 0.00 0.00 45 998.7
20260507152926 67 270 0.0 0.0 0.00 0.00 0.00 44 999.6
20260507144923 69 270 0.0 0.0 0.00 0.00 0.00 41 999.5
20260507142922 69 270 0.0 0.0 0.00 0.00 0.00 40 999.4
20260507140921 70 270 0.0 0.0 0.00 0.00 0.00 40 999.0
20260507134919 70 270 0.0 0.0 0.00 0.00 0.00 39 999.1
20260507132918 70 270 0.0 0.0 0.00 0.00 0.00 37 999.7
20260507130919 71 270 0.0 0.0 0.00 0.00 0.00 35 999.7
20260507124916 73 270 0.0 0.0 0.00 0.00 0.00 32 1000.0
20260507122915 75 270 0.0 0.0 0.00 0.00 0.00 28 1000.2
20260507120914 79 270 0.0 0.0 0.00 0.00 0.00 21 1000.1
20260507114913 82 270 0.0 0.0 0.00 0.00 0.00 17 1000.0
20260507112914 80 270 0.0 0.0 0.00 0.00 0.00 21 1000.5
20260507104910 65 270 0.0 0.0 0.00 0.00 0.00 47 1001.1
20260507102910 63 270 0.0 0.0 0.00 0.00 0.00 49 1001.5
20260507100909 62 270 0.0 0.0 0.00 0.00 0.00 50 1001.6
20260507094908 62 270 0.0 0.0 0.00 0.00 0.00 49 1001.6
20260507092907 62 270 0.0 0.0 0.00 0.00 0.00 48 1001.7
20260507090906 62 270 0.0 0.0 0.00 0.00 0.00 48 1001.8
20260507084905 62 270 0.0 0.0 0.00 0.00 0.00 47 1001.9
20260507082904 62 270 0.0 0.0 0.00 0.00 0.00 47 1002.2
20260507080903 62 270 0.0 0.0 0.00 0.00 0.00 47 1002.9
20260507074902 62 270 0.0 0.0 0.00 0.00 0.00 46 1003.5
20260507072901 62 270 0.0 0.0 0.00 0.00 0.00 46 1003.6
20260507070900 63 270 0.0 0.0 0.00 0.00 0.00 46 1004.2
20260507064859 63 270 0.0 0.0 0.00 0.00 0.00 44 1004.2
20260507062858 64 270 0.0 0.0 0.00 0.00 0.00 43 1005.2
20260507060858 64 270 0.0 0.0 0.00 0.00 0.00 43 1005.1
20260507054858 64 270 0.0 0.0 0.00 0.00 0.00 42 1005.8
20260507052856 64 270 0.0 0.0 0.00 0.00 0.00 42 1005.9
20260507050856 64 270 0.0 0.0 0.00 0.00 0.00 42 1006.3
20260507044854 65 270 0.0 0.0 0.00 0.00 0.00 41 1006.8
20260507042853 65 270 0.0 0.0 0.00 0.00 0.00 40 1007.1
20260507040852 66 270 0.0 0.0 0.00 0.00 0.00 39 1007.3
20260507034851 66 270 0.0 0.0 0.00 0.00 0.00 39 1007.0
20260507033025 67 270 0.0 0.0 0.00 0.00 0.00 38 1007.8
20260507032850 67 270 0.0 0.0 0.00 0.00 0.00 38 1007.8
20260507030849 67 270 0.0 0.0 0.00 0.00 0.00 38 1008.5
20260507024848 68 270 0.0 0.0 0.00 0.00 0.00 37 1008.8
20260507022847 69 270 0.0 0.0 0.00 0.00 0.00 36 1009.1
20260507020846 69 270 0.0 0.0 0.00 0.00 0.00 35 1009.4
20260507014845 70 270 0.0 0.0 0.00 0.00 0.00 34 1009.6
20260507012844 71 270 0.0 0.0 0.00 0.00 0.00 32 1010.0
20260507010844 72 270 0.0 0.0 0.00 0.00 0.00 29 1010.0
20260507004842 74 270 0.0 0.0 0.00 0.00 0.00 27 1010.2
20260507002842 76 270 0.0 0.0 0.00 0.00 0.00 23 1009.9
20260507000841 79 270 0.0 0.0 0.00 0.00 0.00 19 1009.7
20260506234840 83 270 0.0 0.0 0.00 0.00 0.00 13 1009.4
20260506232839 78 270 0.0 0.0 0.00 0.00 0.00 23 1009.5
20260506230839 73 270 0.0 0.0 0.00 0.00 0.00 28 1009.5
20260506224838 74 270 0.0 0.0 0.00 0.00 0.00 26 1009.5
20260506222838 75 270 0.0 0.0 0.00 0.00 0.00 24 1009.2
20260506220835 77 270 0.0 0.0 0.00 0.00 0.00 21 1009.1
20260506214834 78 270 0.0 0.0 0.00 0.00 0.00 19 1009.3
20260506212833 79 270 0.0 0.0 0.00 0.00 0.00 18 1008.9
20260506210832 79 270 0.0 0.0 0.00 0.00 0.00 17 1008.9
20260506202832 81 270 0.0 0.0 0.00 0.00 0.00 15 1008.7
20260506200830 81 270 0.0 0.0 0.00 0.00 0.00 14 1008.8
20260506194828 82 270 0.0 0.0 0.00 0.00 0.00 13 1008.7
20260506192828 83 270 0.0 0.0 0.00 0.00 0.00 12 1008.9
20260506190827 84 270 0.0 0.0 0.00 0.00 0.00 12 1009.1